Station Historical Data
Daily Summary for November 1, 2017 Units:  Metric    English   Both
« Previous Day
Next Day »
Daily Weekly Monthly Yearly Custom
  High: Low: Average:
Temperature: 7.4 °C 3.1 °C 5.2 °C
Dew Point: 4.3 °C -2.4 °C 1 °C
Humidity: 86% 66% 75%
Wind Speed: 12.9km/h 0km/h 2.1km/h
Wind Gust: 22.5km/h - -
Wind- - South
Pressure: 1023.9 hPa 1018.8 hPa -
Precipitation: 0 mm    
Historical Graphs
 
 
Tabular Data for November 1, 2017
Time Temperature Dew Point Pressure Wind Wind Speed Wind Gust Humidity Rainfall Rate (Hourly)
00:04 4.3 °C -0.9 °C 1022.6 hPa SSW 3.2 km/h 9.7 km/h 69% 0 mm
00:09 4.3 °C -1.1 °C 1022.6 hPa SSW 4.8 km/h 9.7 km/h 68% 0 mm
00:14 4.3 °C -1.1 °C 1022.6 hPa SSW 4.8 km/h 11.3 km/h 68% 0 mm
00:19 4.3 °C -1.3 °C 1022.6 hPa SSW 4.8 km/h 11.3 km/h 67% 0 mm
00:24 4.3 °C -1.3 °C 1022.6 hPa SSW 6.4 km/h 16.1 km/h 67% 0 mm
00:29 4.3 °C -1.3 °C 1022.6 hPa SSW 3.2 km/h 11.3 km/h 67% 0 mm
00:34 4.3 °C -1.4 °C 1022.6 hPa SSW 9.7 km/h 12.9 km/h 66% 0 mm
00:39 4.4 °C -1.4 °C 1022.6 hPa SSW 6.4 km/h 12.9 km/h 66% 0 mm
00:44 4.3 °C -1.4 °C 1022.6 hPa SSW 6.4 km/h 17.7 km/h 66% 0 mm
00:49 4.3 °C -1.3 °C 1022.2 hPa SSW 3.2 km/h 9.7 km/h 67% 0 mm
00:54 4.3 °C -1.3 °C 1022.6 hPa SSW 3.2 km/h 11.3 km/h 67% 0 mm
00:59 4.3 °C -1.3 °C 1022.6 hPa SSW 4.8 km/h 11.3 km/h 67% 0 mm
01:04 4.3 °C -1.3 °C 1022.6 hPa SSW 4.8 km/h 12.9 km/h 67% 0 mm
01:09 4.3 °C -1.3 °C 1022.6 hPa SSW 4.8 km/h 12.9 km/h 67% 0 mm
01:14 4.3 °C -1.3 °C 1022.6 hPa SSW 3.2 km/h 9.7 km/h 67% 0 mm
01:19 4.3 °C -1.3 °C 1022.2 hPa SSW 4.8 km/h 11.3 km/h 67% 0 mm
01:24 4.3 °C -1.3 °C 1022.2 hPa SSE 3.2 km/h 9.7 km/h 67% 0 mm
01:29 4.2 °C -1.4 °C 1022.2 hPa SSW 6.4 km/h 11.3 km/h 67% 0 mm
01:34 4.2 °C -1.2 °C 1022.2 hPa SSW 3.2 km/h 11.3 km/h 68% 0 mm
01:39 4.1 °C -1.3 °C 1022.2 hPa South 3.2 km/h 8 km/h 68% 0 mm
01:44 4.1 °C -1.3 °C 1022.2 hPa South 3.2 km/h 9.7 km/h 68% 0 mm
01:49 4.1 °C -1.3 °C 1022.2 hPa Calm   8 km/h 68% 0 mm
01:54 4.1 °C -1.1 °C 1022.2 hPa SSW 1.6 km/h 6.4 km/h 69% 0 mm
01:59 4.1 °C -1.1 °C 1022.2 hPa SSE 3.2 km/h 6.4 km/h 69% 0 mm
02:04 4 °C -1.2 °C 1022.2 hPa SSW 4.8 km/h 6.4 km/h 69% 0 mm
02:09 4 °C -1.2 °C 1022.2 hPa South 1.6 km/h 6.4 km/h 69% 0 mm
02:14 4 °C -1.2 °C 1022.2 hPa SSW 3.2 km/h 8 km/h 69% 0 mm
02:19 4 °C -1.2 °C 1022.2 hPa Calm   9.7 km/h 69% 0 mm
02:24 4 °C -1.2 °C 1022.2 hPa South 1.6 km/h 9.7 km/h 69% 0 mm
02:29 4 °C -1.2 °C 1021.9 hPa SSW 3.2 km/h 8 km/h 69% 0 mm
02:34 4 °C -1.2 °C 1022.2 hPa SSE 4.8 km/h 6.4 km/h 69% 0 mm
02:39 4 °C -1.2 °C 1022.2 hPa South 3.2 km/h 8 km/h 69% 0 mm
02:44 4 °C -1.2 °C 1022.2 hPa South 3.2 km/h 8 km/h 69% 0 mm
02:49 3.9 °C -1.2 °C 1022.2 hPa South 3.2 km/h 11.3 km/h 69% 0 mm
02:54 4.1 °C -1.3 °C 1022.2 hPa South 3.2 km/h 9.7 km/h 68% 0 mm
02:59 4.1 °C -1.3 °C 1022.2 hPa South 3.2 km/h 9.7 km/h 68% 0 mm
03:04 4.1 °C -1.3 °C 1022.2 hPa South 3.2 km/h 9.7 km/h 68% 0 mm
03:09 4.1 °C -1.3 °C 1022.2 hPa Calm   3.2 km/h 68% 0 mm
03:14 4 °C -1.4 °C 1022.2 hPa SSW 1.6 km/h 4.8 km/h 68% 0 mm
03:19 4 °C -1.4 °C 1022.2 hPa Calm   4.8 km/h 68% 0 mm
03:24 4 °C -1.4 °C 1022.2 hPa Calm   4.8 km/h 68% 0 mm
03:29 4 °C -1.6 °C 1022.2 hPa Calm   1.6 km/h 67% 0 mm
03:34 3.9 °C -1.6 °C 1022.2 hPa Calm     67% 0 mm
03:39 3.9 °C -1.7 °C 1022.2 hPa Calm   3.2 km/h 67% 0 mm
03:44 3.8 °C -1.6 °C 1022.2 hPa Calm     68% 0 mm
03:49 3.7 °C -1.7 °C 1022.2 hPa Calm   1.6 km/h 68% 0 mm
03:54 3.7 °C -1.7 °C 1022.2 hPa Calm   1.6 km/h 68% 0 mm
03:59 3.7 °C -1.7 °C 1022.2 hPa Calm     68% 0 mm
04:04 3.6 °C -1.7 °C 1022.2 hPa Calm     68% 0 mm
04:09 3.6 °C -1.8 °C 1022.2 hPa Calm     68% 0 mm
04:14 3.5 °C -1.7 °C 1022.2 hPa Calm     69% 0 mm
04:19 3.5 °C -1.7 °C 1022.2 hPa Calm     69% 0 mm
04:24 3.4 °C -1.7 °C 1022.2 hPa Calm     69% 0 mm
04:29 3.4 °C -1.7 °C 1022.2 hPa South 1.6 km/h 6.4 km/h 69% 0 mm
04:34 3.5 °C -1.7 °C 1022.2 hPa Calm   1.6 km/h 69% 0 mm
04:39 3.5 °C -1.7 °C 1022.2 hPa Calm     69% 0 mm
04:44 3.6 °C -1.8 °C 1022.2 hPa South 1.6 km/h 4.8 km/h 68% 0 mm
04:49 3.6 °C -1.9 °C 1022.2 hPa South 1.6 km/h 8 km/h 67% 0 mm
04:54 3.6 °C -2 °C 1022.2 hPa South 3.2 km/h 8 km/h 67% 0 mm
04:59 3.6 °C -2 °C 1022.2 hPa South 3.2 km/h 9.7 km/h 67% 0 mm
05:04 3.6 °C -2 °C 1022.2 hPa SSW 3.2 km/h 9.7 km/h 67% 0 mm
05:09 3.5 °C -2.1 °C 1022.2 hPa SSW 1.6 km/h 9.7 km/h 67% 0 mm
05:14 3.5 °C -2.3 °C 1022.2 hPa SSW 1.6 km/h 9.7 km/h 66% 0 mm
05:19 3.4 °C -2.3 °C 1022.6 hPa SSW 3.2 km/h 6.4 km/h 66% 0 mm
05:24 3.4 °C -2.3 °C 1022.6 hPa SSW 1.6 km/h 4.8 km/h 66% 0 mm
05:29 3.4 °C -2.3 °C 1022.6 hPa SSW 3.2 km/h 4.8 km/h 66% 0 mm
05:34 3.4 °C -2.3 °C 1022.9 hPa SSW 1.6 km/h 6.4 km/h 66% 0 mm
05:39 3.4 °C -2.3 °C 1022.9 hPa Calm   8 km/h 66% 0 mm
05:44 3.4 °C -2.3 °C 1022.9 hPa SSW 1.6 km/h 8 km/h 66% 0 mm
05:49 3.4 °C -2.3 °C 1022.9 hPa Calm   4.8 km/h 66% 0 mm
05:54 3.4 °C -2.3 °C 1022.9 hPa SSW 4.8 km/h 6.4 km/h 66% 0 mm
05:59 3.4 °C -2.3 °C 1022.9 hPa SW 1.6 km/h 8 km/h 66% 0 mm
06:04 3.4 °C -2.3 °C 1022.9 hPa SW 3.2 km/h 8 km/h 66% 0 mm
06:09 3.4 °C -2.4 °C 1022.9 hPa SW 3.2 km/h 6.4 km/h 66% 0 mm
06:14 3.3 °C -2.2 °C 1022.9 hPa SSW 1.6 km/h 6.4 km/h 67% 0 mm
06:19 3.4 °C -2.4 °C 1022.9 hPa SW 1.6 km/h 6.4 km/h 66% 0 mm
06:24 3.4 °C -2.2 °C 1022.9 hPa SW 1.6 km/h 4.8 km/h 67% 0 mm
06:29 3.3 °C -2.2 °C 1022.9 hPa Calm   4.8 km/h 67% 0 mm
06:34 3.3 °C -2.2 °C 1022.9 hPa SSW 1.6 km/h 8 km/h 67% 0 mm
06:39 3.4 °C -2.4 °C 1022.9 hPa Calm   4.8 km/h 66% 0 mm
06:44 3.3 °C -2.2 °C 1022.9 hPa SW 1.6 km/h 4.8 km/h 67% 0 mm
06:49 3.3 °C -2.2 °C 1022.9 hPa Calm   4.8 km/h 67% 0 mm
06:54 3.3 °C -2.3 °C 1022.9 hPa Calm     67% 0 mm
06:59 3.2 °C -2.1 °C 1022.9 hPa Calm   1.6 km/h 68% 0 mm
07:04 3.2 °C -2 °C 1023.2 hPa Calm     69% 0 mm
07:09 3.2 °C -2 °C 1023.2 hPa Calm   4.8 km/h 69% 0 mm
07:14 3.2 °C -2 °C 1023.2 hPa Calm   4.8 km/h 69% 0 mm
07:19 3.2 °C -2 °C 1023.2 hPa Calm   4.8 km/h 69% 0 mm
07:24 3.1 °C -2.1 °C 1023.2 hPa Calm   6.4 km/h 69% 0 mm
07:29 3.2 °C -2 °C 1023.2 hPa SSW 1.6 km/h 8 km/h 69% 0 mm
07:34 3.2 °C -2 °C 1023.2 hPa Calm   1.6 km/h 69% 0 mm
07:39 3.2 °C -2 °C 1023.2 hPa Calm   4.8 km/h 69% 0 mm
07:44 3.2 °C -2 °C 1023.2 hPa Calm   4.8 km/h 69% 0 mm
07:49 3.2 °C -2 °C 1023.2 hPa Calm   4.8 km/h 69% 0 mm
07:54 3.2 °C -2 °C 1023.2 hPa Calm     69% 0 mm
07:59 3.2 °C -2 °C 1023.2 hPa Calm     69% 0 mm
08:04 3.1 °C -2.1 °C 1023.2 hPa Calm     69% 0 mm
08:09 3.1 °C -1.9 °C 1023.2 hPa Calm     70% 0 mm
08:14 3.2 °C -1.8 °C 1023.2 hPa Calm   3.2 km/h 70% 0 mm
08:19 3.3 °C -1.7 °C 1023.2 hPa Calm   3.2 km/h 70% 0 mm
08:24 3.3 °C -1.5 °C 1023.6 hPa Calm   3.2 km/h 71% 0 mm
08:29 3.3 °C -1.5 °C 1023.6 hPa Calm     71% 0 mm
08:34 3.3 °C -1.5 °C 1023.6 hPa Calm   3.2 km/h 71% 0 mm
08:39 3.3 °C -1.2 °C 1023.6 hPa Calm   3.2 km/h 72% 0 mm
08:44 3.3 °C -1.3 °C 1023.6 hPa Calm     72% 0 mm
08:49 3.3 °C -1.3 °C 1023.6 hPa Calm     72% 0 mm
08:54 3.3 °C -1.3 °C 1023.6 hPa Calm     72% 0 mm
08:59 3.4 °C -1.4 °C 1023.6 hPa Calm     71% 0 mm
09:04 3.4 °C -1.3 °C 1023.6 hPa Calm     71% 0 mm
09:09 3.6 °C -1.2 °C 1023.9 hPa Calm     71% 0 mm
09:14 3.7 °C -1.2 °C 1023.9 hPa Calm     70% 0 mm
09:19 3.8 °C -1.2 °C 1023.9 hPa Calm     70% 0 mm
09:24 3.9 °C -1.1 °C 1023.9 hPa Calm     70% 0 mm
09:29 4 °C -0.8 °C 1023.9 hPa Calm     71% 0 mm
09:34 4.1 °C -0.7 °C 1023.6 hPa Calm     71% 0 mm
09:39 4.2 °C -0.8 °C 1023.9 hPa Calm     70% 0 mm
09:44 4.3 °C -0.9 °C 1023.9 hPa Calm   3.2 km/h 69% 0 mm
09:49 4.3 °C -0.7 °C 1023.9 hPa Calm   3.2 km/h 70% 0 mm
09:54 4.3 °C -0.8 °C 1023.6 hPa SE 1.6 km/h 4.8 km/h 69% 0 mm
09:59 4.3 °C -0.7 °C 1023.6 hPa SSE 3.2 km/h 3.2 km/h 70% 0 mm
10:04 4.4 °C -0.6 °C 1023.6 hPa Calm   3.2 km/h 70% 0 mm
10:09 4.6 °C -0.4 °C 1023.6 hPa Calm   3.2 km/h 70% 0 mm
10:14 4.7 °C -0.3 °C 1023.6 hPa Calm     70% 0 mm
10:19 4.7 °C -0.5 °C 1023.6 hPa Calm   6.4 km/h 69% 0 mm
10:24 4.8 °C -0.4 °C 1023.6 hPa SSE 3.2 km/h 6.4 km/h 69% 0 mm
10:29 5 °C -0.2 °C 1023.6 hPa Calm   4.8 km/h 69% 0 mm
10:34 5.1 °C -0.1 °C 1023.6 hPa SSE 1.6 km/h 4.8 km/h 69% 0 mm
10:39 5.3 °C 0.3 °C 1023.2 hPa Calm   4.8 km/h 70% 0 mm
10:44 5.6 °C 0.3 °C 1023.2 hPa SSE 1.6 km/h 4.8 km/h 69% 0 mm
10:49 5.8 °C 0.6 °C 1023.6 hPa SSE 1.6 km/h 4.8 km/h 69% 0 mm
10:54 5.9 °C 0.7 °C 1023.6 hPa Calm   6.4 km/h 69% 0 mm
10:59 6 °C 0.9 °C 1023.2 hPa Calm   4.8 km/h 70% 0 mm
11:04 6.2 °C 0.9 °C 1023.2 hPa SSW 1.6 km/h 4.8 km/h 69% 0 mm
11:09 6.3 °C 1.3 °C 1023.2 hPa SSW 1.6 km/h 6.4 km/h 70% 0 mm
11:14 6.7 °C 1.6 °C 1023.2 hPa SW 1.6 km/h 8 km/h 70% 0 mm
11:19 7.2 °C 2.1 °C 1023.6 hPa SW 11.3 km/h 14.5 km/h 70% 0 mm
11:24 7.3 °C 2.2 °C 1023.2 hPa SW 9.7 km/h 11.3 km/h 70% 0 mm
11:29 7.4 °C 2.3 °C 1023.2 hPa SW 3.2 km/h 11.3 km/h 70% 0 mm
11:34 7.3 °C 2.2 °C 1023.2 hPa SW 3.2 km/h 16.1 km/h 70% 0 mm
11:39 7.2 °C 2.3 °C 1023.2 hPa SSW 8 km/h 17.7 km/h 71% 0 mm
11:44 7.2 °C 2.4 °C 1023.2 hPa SSW 8 km/h 17.7 km/h 72% 0 mm
11:49 7.3 °C 2.6 °C 1023.2 hPa SSW 6.4 km/h 17.7 km/h 72% 0 mm
11:54 7.2 °C 2.5 °C 1023.2 hPa South 8 km/h 19.3 km/h 72% 0 mm
11:59 7.1 °C 2.3 °C 1022.9 hPa Calm   16.1 km/h 72% 0 mm
12:04 7.1 °C 2.6 °C 1022.9 hPa SSW 8 km/h 14.5 km/h 73% 0 mm
12:09 7.1 °C 2.6 °C 1022.9 hPa South 4.8 km/h 12.9 km/h 73% 0 mm
12:14 7.1 °C 2.8 °C 1022.6 hPa SSW 6.4 km/h 19.3 km/h 74% 0 mm
12:19 7 °C 2.7 °C 1022.6 hPa SSW 8 km/h 19.3 km/h 74% 0 mm
12:24 7 °C 2.7 °C 1022.6 hPa ESE 11.3 km/h 17.7 km/h 74% 0 mm
12:29 7.1 °C 2.9 °C 1022.6 hPa SSW 8 km/h 20.9 km/h 75% 0 mm
12:34 7.2 °C 2.8 °C 1022.2 hPa SSW 8 km/h 16.1 km/h 74% 0 mm
12:39 7.2 °C 2.9 °C 1021.9 hPa SSW 3.2 km/h 20.9 km/h 74% 0 mm
12:44 7.4 °C 3.1 °C 1021.9 hPa South 8 km/h 20.9 km/h 74% 0 mm
12:49 7.3 °C 3 °C 1021.9 hPa South 8 km/h 22.5 km/h 74% 0 mm
12:54 7.4 °C 3.1 °C 1021.9 hPa South 8 km/h 22.5 km/h 74% 0 mm
12:59 7.2 °C 2.8 °C 1021.9 hPa South 8 km/h 19.3 km/h 74% 0 mm
13:04 7.1 °C 3 °C 1021.9 hPa South 8 km/h 19.3 km/h 75% 0 mm
13:09 7.2 °C 3.1 °C 1021.9 hPa South 4.8 km/h 17.7 km/h 75% 0 mm
13:14 7 °C 2.9 °C 1021.9 hPa SSW 6.4 km/h 16.1 km/h 75% 0 mm
13:19 6.8 °C 2.9 °C 1021.6 hPa South 6.4 km/h 16.1 km/h 76% 0 mm
13:24 6.7 °C 2.9 °C 1021.6 hPa South 6.4 km/h 16.1 km/h 77% 0 mm
13:29 6.8 °C 3.4 °C 1021.2 hPa SE 6.4 km/h 9.7 km/h 79% 0 mm
13:34 6.8 °C 3.4 °C 1021.2 hPa South 9.7 km/h 12.9 km/h 79% 0 mm
13:39 6.8 °C 3.2 °C 1021.6 hPa SW 4.8 km/h 12.9 km/h 78% 0 mm
13:44 6.6 °C 3 °C 1021.9 hPa SSE 12.9 km/h 14.5 km/h 78% 0 mm
13:49 6.5 °C 2.9 °C 1021.6 hPa South 3.2 km/h 16.1 km/h 78% 0 mm
13:54 6.5 °C 2.9 °C 1021.6 hPa SSE 4.8 km/h 16.1 km/h 78% 0 mm
13:59 6.7 °C 3.1 °C 1021.2 hPa SSE 4.8 km/h 11.3 km/h 78% 0 mm
14:04 6.7 °C 3.1 °C 1021.2 hPa SSE 6.4 km/h 14.5 km/h 78% 0 mm
14:09 6.6 °C 2.9 °C 1021.2 hPa SSE 6.4 km/h 14.5 km/h 77% 0 mm
14:14 6.8 °C 3.1 °C 1020.9 hPa South 3.2 km/h 9.7 km/h 77% 0 mm
14:19 6.9 °C 3.2 °C 1021.2 hPa SSW 8 km/h 11.3 km/h 77% 0 mm
14:24 6.8 °C 2.8 °C 1021.2 hPa SE 1.6 km/h 11.3 km/h 76% 0 mm
14:29 6.6 °C 2.9 °C 1021.2 hPa South 4.8 km/h 11.3 km/h 77% 0 mm
14:34 6.6 °C 2.9 °C 1020.9 hPa South 4.8 km/h 9.7 km/h 77% 0 mm
14:39 6.6 °C 2.9 °C 1020.9 hPa SSW 1.6 km/h 8 km/h 77% 0 mm
14:44 6.6 °C 3.1 °C 1020.9 hPa SSE 4.8 km/h 6.4 km/h 78% 0 mm
14:49 6.6 °C 2.9 °C 1020.9 hPa SW 4.8 km/h 11.3 km/h 77% 0 mm
14:54 6.6 °C 3 °C 1020.9 hPa SSE 1.6 km/h 8 km/h 78% 0 mm
14:59 6.6 °C 3.1 °C 1020.9 hPa South 3.2 km/h 8 km/h 78% 0 mm
15:04 6.6 °C 2.8 °C 1020.9 hPa SSE 3.2 km/h 9.7 km/h 77% 0 mm
15:09 6.6 °C 2.8 °C 1020.9 hPa SSE 3.2 km/h 9.7 km/h 77% 0 mm
15:14 6.6 °C 3 °C 1020.9 hPa SSE 3.2 km/h 9.7 km/h 78% 0 mm
15:19 6.5 °C 2.9 °C 1020.9 hPa SSE 1.6 km/h 8 km/h 78% 0 mm
15:24 6.6 °C 3 °C 1020.9 hPa SSE 1.6 km/h 6.4 km/h 78% 0 mm
15:29 6.5 °C 2.9 °C 1020.9 hPa SSE 3.2 km/h 9.7 km/h 78% 0 mm
15:34 6.5 °C 2.9 °C 1020.9 hPa SSE 3.2 km/h 9.7 km/h 78% 0 mm
15:39 6.4 °C 3.1 °C 1020.9 hPa South 1.6 km/h 8 km/h 79% 0 mm
15:44 6.4 °C 3 °C 1020.9 hPa SSW 3.2 km/h 6.4 km/h 79% 0 mm
15:49 6.4 °C 3.2 °C 1020.9 hPa South 3.2 km/h 6.4 km/h 80% 0 mm
15:54 6.4 °C 3.2 °C 1020.9 hPa South 3.2 km/h 8 km/h 80% 0 mm
15:59 6.3 °C 3.1 °C 1020.9 hPa SE 1.6 km/h 6.4 km/h 80% 0 mm
16:04 6.3 °C 3.1 °C 1020.9 hPa SE 3.2 km/h 8 km/h 80% 0 mm
16:09 6.3 °C 3.1 °C 1020.9 hPa SSE 3.2 km/h 9.7 km/h 80% 0 mm
16:14 6.2 °C 2.9 °C 1020.9 hPa SSE 3.2 km/h 9.7 km/h 80% 0 mm
16:19 6.1 °C 2.9 °C 1021.2 hPa SSE 3.2 km/h 9.7 km/h 80% 0 mm
16:24 6.1 °C 2.9 °C 1021.2 hPa South 3.2 km/h 9.7 km/h 80% 0 mm
16:29 6 °C 2.8 °C 1020.9 hPa South 3.2 km/h 8 km/h 80% 0 mm
16:34 6 °C 2.8 °C 1020.9 hPa South 6.4 km/h 11.3 km/h 80% 0 mm
16:39 6 °C 3 °C 1020.9 hPa SSE 3.2 km/h 11.3 km/h 81% 0 mm
16:44 5.9 °C 2.9 °C 1020.9 hPa Calm   8 km/h 81% 0 mm
16:49 6 °C 3 °C 1020.9 hPa Calm   8 km/h 81% 0 mm
16:54 5.9 °C 2.9 °C 1020.9 hPa SSE 1.6 km/h 4.8 km/h 81% 0 mm
16:59 5.9 °C 3.1 °C 1020.5 hPa SSE 4.8 km/h 6.4 km/h 82% 0 mm
17:04 5.9 °C 3.1 °C 1020.5 hPa Calm   4.8 km/h 82% 0 mm
17:09 5.8 °C 3 °C 1020.5 hPa ESE 3.2 km/h 8 km/h 82% 0 mm
17:14 5.8 °C 2.9 °C 1020.5 hPa SE 3.2 km/h 9.7 km/h 82% 0 mm
17:19 5.7 °C 2.9 °C 1020.5 hPa SE 1.6 km/h 9.7 km/h 82% 0 mm
17:24 5.7 °C 2.9 °C 1020.5 hPa SSE 1.6 km/h 6.4 km/h 82% 0 mm
17:29 5.7 °C 3.1 °C 1020.5 hPa SSE 1.6 km/h 6.4 km/h 83% 0 mm
17:34 5.7 °C 3.1 °C 1020.5 hPa SSE 1.6 km/h 6.4 km/h 83% 0 mm
17:39 5.7 °C 3 °C 1020.2 hPa SE 1.6 km/h 6.4 km/h 83% 0 mm
17:44 5.7 °C 3 °C 1020.5 hPa Calm   4.8 km/h 83% 0 mm
17:49 5.7 °C 3 °C 1020.5 hPa SE 1.6 km/h 6.4 km/h 83% 0 mm
17:54 5.6 °C 2.9 °C 1020.5 hPa Calm     83% 0 mm
17:59 5.6 °C 2.9 °C 1020.5 hPa Calm     83% 0 mm
18:04 5.6 °C 2.9 °C 1020.5 hPa Calm     83% 0 mm
18:09 5.5 °C 2.8 °C 1020.5 hPa Calm     83% 0 mm
18:14 5.5 °C 3 °C 1020.5 hPa Calm     84% 0 mm
18:19 5.6 °C 3.1 °C 1020.9 hPa Calm   3.2 km/h 84% 0 mm
18:24 5.6 °C 3.1 °C 1020.9 hPa Calm   3.2 km/h 84% 0 mm
18:29 5.6 °C 2.9 °C 1020.5 hPa Calm   4.8 km/h 83% 0 mm
18:34 5.6 °C 2.9 °C 1020.5 hPa Calm   4.8 km/h 83% 0 mm
18:39 5.6 °C 2.9 °C 1020.5 hPa Calm   3.2 km/h 83% 0 mm
18:44 5.7 °C 3 °C 1020.2 hPa Calm   4.8 km/h 83% 0 mm
18:49 5.7 °C 2.8 °C 1020.5 hPa Calm   6.4 km/h 82% 0 mm
18:54 5.7 °C 2.9 °C 1020.2 hPa East 3.2 km/h 8 km/h 82% 0 mm
18:59 5.8 °C 2.9 °C 1020.2 hPa Calm   8 km/h 82% 0 mm
19:04 5.8 °C 2.9 °C 1020.2 hPa Calm   6.4 km/h 82% 0 mm
19:09 5.8 °C 3 °C 1020.2 hPa East 8 km/h 9.7 km/h 82% 0 mm
19:14 5.8 °C 3 °C 1020.2 hPa SSE 1.6 km/h 8 km/h 82% 0 mm
19:19 5.8 °C 3 °C 1020.2 hPa Calm   8 km/h 82% 0 mm
19:24 5.8 °C 3 °C 1020.2 hPa Calm   8 km/h 82% 0 mm
19:29 5.8 °C 3 °C 1020.2 hPa SE 1.6 km/h 8 km/h 82% 0 mm
19:34 5.8 °C 3 °C 1020.2 hPa SE 1.6 km/h 8 km/h 82% 0 mm
19:39 5.8 °C 2.8 °C 1020.2 hPa ESE 1.6 km/h 8 km/h 81% 0 mm
19:44 5.8 °C 2.8 °C 1020.2 hPa ESE 1.6 km/h 9.7 km/h 81% 0 mm
19:49 5.9 °C 2.9 °C 1020.2 hPa ESE 1.6 km/h 9.7 km/h 81% 0 mm
19:54 5.8 °C 2.8 °C 1019.9 hPa ESE 1.6 km/h 9.7 km/h 81% 0 mm
19:59 5.8 °C 2.8 °C 1020.2 hPa ESE 1.6 km/h 8 km/h 81% 0 mm
20:04 5.8 °C 2.8 °C 1020.2 hPa Calm   3.2 km/h 81% 0 mm
20:09 5.8 °C 2.8 °C 1020.2 hPa Calm   1.6 km/h 81% 0 mm
20:14 5.8 °C 2.8 °C 1019.9 hPa SE 3.2 km/h 3.2 km/h 81% 0 mm
20:19 5.8 °C 2.8 °C 1019.9 hPa East 3.2 km/h 8 km/h 81% 0 mm
20:24 5.8 °C 2.8 °C 1019.9 hPa Calm   6.4 km/h 81% 0 mm
20:29 5.8 °C 3 °C 1019.9 hPa Calm     82% 0 mm
20:34 5.8 °C 3 °C 1019.5 hPa Calm     82% 0 mm
20:44 5.8 °C 3 °C 1020.2 hPa Calm   8 km/h 82% 0 mm
20:49 5.8 °C 3 °C 1020.2 hPa East 1.6 km/h 8 km/h 82% 0 mm
20:54 5.8 °C 3 °C 1020.5 hPa Calm   4.8 km/h 82% 0 mm
20:59 5.8 °C 3.2 °C 1020.5 hPa Calm     83% 0 mm
21:04 5.9 °C 3.2 °C 1020.2 hPa Calm     83% 0 mm
21:09 5.9 °C 3.2 °C 1020.2 hPa Calm     83% 0 mm
21:14 5.9 °C 3.3 °C 1020.2 hPa Calm     83% 0 mm
21:19 5.9 °C 3.3 °C 1020.2 hPa Calm     83% 0 mm
21:24 5.9 °C 3.4 °C 1020.5 hPa Calm     84% 0 mm
21:29 5.9 °C 3.4 °C 1020.5 hPa Calm     84% 0 mm
21:34 5.9 °C 3.4 °C 1020.2 hPa Calm     84% 0 mm
21:39 5.9 °C 3.4 °C 1020.5 hPa Calm     84% 0 mm
21:44 6 °C 3.5 °C 1020.5 hPa Calm     84% 0 mm
21:49 6 °C 3.5 °C 1020.2 hPa Calm     84% 0 mm
21:54 6 °C 3.5 °C 1020.2 hPa Calm     84% 0 mm
21:59 6 °C 3.7 °C 1020.2 hPa Calm     85% 0 mm
22:04 6 °C 3.7 °C 1020.2 hPa Calm     85% 0 mm
22:09 6 °C 3.7 °C 1020.2 hPa Calm     85% 0 mm
22:14 6 °C 3.7 °C 1020.2 hPa Calm     85% 0 mm
22:19 6.1 °C 3.7 °C 1020.2 hPa Calm     85% 0 mm
22:24 6.1 °C 3.7 °C 1020.2 hPa Calm     85% 0 mm
22:29 6.1 °C 3.7 °C 1020.2 hPa Calm     85% 0 mm
22:34 6.1 °C 3.7 °C 1020.2 hPa Calm     85% 0 mm
22:39 6.1 °C 3.8 °C 1020.2 hPa Calm     85% 0 mm
22:44 6.1 °C 3.8 °C 1019.9 hPa Calm     85% 0 mm
22:49 6.1 °C 3.8 °C 1019.9 hPa Calm     85% 0 mm
22:54 6.2 °C 3.8 °C 1019.9 hPa Calm     85% 0 mm
22:59 6.2 °C 3.8 °C 1019.9 hPa Calm     85% 0 mm
23:04 6.2 °C 3.8 °C 1019.5 hPa Calm   8 km/h 85% 0 mm
23:09 6.2 °C 3.9 °C 1019.5 hPa SE 1.6 km/h 8 km/h 85% 0 mm
23:14 6.2 °C 3.8 °C 1019.2 hPa ENE 3.2 km/h 4.8 km/h 85% 0 mm
23:19 6.2 °C 4 °C 1019.2 hPa Calm   6.4 km/h 86% 0 mm
23:24 6.2 °C 4.1 °C 1018.8 hPa ESE 1.6 km/h 9.7 km/h 86% 0 mm
23:29 6.2 °C 4.1 °C 1018.8 hPa ENE 3.2 km/h 8 km/h 86% 0 mm
23:34 6.3 °C 4.1 °C 1018.8 hPa SE 4.8 km/h 6.4 km/h 86% 0 mm
23:39 6.3 °C 4.2 °C 1018.8 hPa Calm   4.8 km/h 86% 0 mm
23:44 6.3 °C 4.2 °C 1018.8 hPa Calm   4.8 km/h 86% 0 mm
23:49 6.4 °C 4.2 °C 1018.8 hPa Calm   3.2 km/h 86% 0 mm
23:54 6.4 °C 4.3 °C 1018.8 hPa Calm   3.2 km/h 86% 0 mm
23:59 6.4 °C 4.3 °C 1018.8 hPa Calm     86% 0 mm
Buffalo, New York, USA
Compliments of Weather Underground - 2.5 mb